Regional Weather Roundup
Issued by NWS Upton, NY

Current Version | Previous Version | Text Only | Print | Product List | Glossary Off
Versions: 1 2 3 4 5 6 7 8 9 10 11 12 13 14 15 16 17 18 19 20 21 22 23 24 25 26 27 28 29 30 31 32 33 34 35 36 37 38 39 40 41 42 43 44 45 46 47 48 49 50
784 ASUS41 KOKX 220109 RWROKX REGIONAL WEATHER ROUNDUP NATIONAL WEATHER SERVICE NEW YORK NY 900 PM EDT THU SEP 21 2017 NOTE: "FAIR" INDICATES FEW OR NO CLOUDS BELOW 12,000 FEET WITH NO SIGNIFICANT WEATHER AND/OR OBSTRUCTIONS TO VISIBILITY. NYZ071-072-176-178-NJZ106-104-220200- NEW YORK CITY METRO AREA CITY SKY/WX TMP DP RH WIND PRES REMARKS Central Park CLOUDY 76 63 64 VRB7 30.05R Bronx Bot Gard N/A N/A N/A N/A CALM 30.04S LaGuardia APRT CLOUDY 75 64 68 N10 30.01R Kennedy INTL CLOUDY 75 65 70 N10 30.02R Breezy Point N/A 75 N/A N/A N10G16 N/A Newark/Liberty CLOUDY 75 62 64 N14 30.01R Teterboro MOCLDY 76 62 62 N5 30.01R $$ NYZ177-179-078>081-220200- LONG ISLAND NEW YORK CITY SKY/WX TMP DP RH WIND PRES REMARKS Jones Beach N/A 73 N/A N/A N10 N/A Matinecock PT N/A 72 N/A N/A E9 N/A Farmingdale CLOUDY 72 56 57 N10 30.01S MacArthur/ISP CLOUDY 72 55 55 N13 30.00R Shirley MOCLDY 73 56 54 N13 30.00S Mt Sinai Harb N/A N/A N/A N/A N16 N/A Westhampton MOCLDY 70 52 52 N18 29.99S East Hampton CLOUDY 69 53 56 N15G24 29.96S Montauk N/A 69 56 62 N15G23 29.97S $$ NYZ052-065-067-220200- HUDSON VALLEY CITY SKY/WX TMP DP RH WIND PRES REMARKS White Plains CLOUDY 72 63 73 N7 30.03R Larchmont Harb N/A 73 N/A N/A N7 N/A Croton On Huds N/A 72 N/A N/A N1 N/A Newburgh CLEAR 70 64 83 NE5 30.05S Montgomery PTCLDY 64 62 93 CALM 30.04S Poughkeepsie CLOUDY 67 63 87 CALM 30.02S Albany MOCLDY 70 58 65 N8 30.08R $$ NJZ001-105-106-008-010-013-015-019>022-104-220200- NEW JERSEY CITY SKY/WX TMP DP RH WIND PRES REMARKS Newark/Liberty CLOUDY 75 62 64 N14 30.01R Teterboro MOCLDY 76 62 62 N5 30.01R Caldwell PTCLDY 70 63 78 CALM 30.03R Somerville NOT AVBL Linden FAIR 76 58 53 N5 30.02R Perth Amboy N/A 75 N/A N/A N2 N/A Sussex CLEAR 66 65 96 CALM 30.05R Andover N/A 65 64 97 CALM 30.05R Trenton MOCLDY 72 65 78 N5 30.02R Millville CLOUDY 72 70 93 CALM 30.01S Atlantic City PTCLDY 71 68 90 CALM 30.01R Wrightstown MOCLDY 69 64 82 CALM 29.99R Toms River MOCLDY 67 65 93 CALM 30.02R Belmar PTCLDY 71 62 73 N5 30.03R $$ PAZ047>061-062-071-220200- EASTERN PENNSYLVANIA CITY SKY/WX TMP DP RH WIND PRES REMARKS Philadelphia MOCLDY 78 59 51 E3 30.01R Allentown CLOUDY 73 63 70 N5 30.03R Scranton PTCLDY 69 64 84 VRB3 30.08R $$ CTZ002-004>006-009-010-012-RIZ004-006-007-MAZ004-011-015-220200- SOUTHERN NEW ENGLAND IN CT CITY SKY/WX TMP DP RH WIND PRES REMARKS Bradley INTL CLOUDY 67 56 67 N8 30.05R Hartford CLOUDY 69 54 58 N10 30.03R Danbury CLOUDY 70 65 84 E7 30.05R Wtrbury/Oxford CLOUDY 67 55 65 N10 30.05R Norwalk Harbor N/A 72 N/A N/A N12 N/A Bridgeport MOCLDY 73 54 51 N8 30.01R Meriden CLOUDY 70 54 56 N13G20 30.02S New Haven CLOUDY 71 54 54 N13 30.01R Chester FAIR 68 52 56 N13G23 30.00F Groton MOCLDY 69 50 50 N18G28 29.96F Wilimantic CLOUDY 67 53 61 N12G20 30.02S IN RI CITY SKY/WX TMP DP RH WIND PRES REMARKS Providence CLOUDY 69 52 54 N21G31 29.99S Block Island CLOUDY 68 52 56 N24G35 29.94R Westerly CLOUDY 69 53 56 N12G22 29.97S IN MA CITY SKY/WX TMP DP RH WIND PRES REMARKS Boston NOT AVBL Worcester CLOUDY 63 48 58 N14G23 30.06S Westfield CLOUDY 67 57 70 NE6 30.06R Provincetown CLOUDY 62 55 77 NE25G36 29.94S Nantucket HVY RAIN 60 60 100 N39G52 29.79F FOG $$ ANZ330-335-338-340-345-350-353-355-220200- COASTAL MARINE OBSERVATIONS STATION/POSITION TIME SKY/WX TEMP WIND PRES VSBY WAVE AIR SEA DIR/SP/G HT/PER (UTC) (F) (DEG/KT/KT) (MB) (MI) (FT/S) NY HARB ENTRANCE 2350 73 70 10/ 8/ 10 1014.9 4/ 9 20 S FIRE ISLAND 2350 70 68 360/ 12/ 12 1015.0 7/ 9 GREAT SOUTH BAY 0015 73 71 360/ 10/ 14 N/A 23 SSW MONTAUK P 2350 68 65 1013.5 8/10 15 E BARNEGAT LI 0030 69 N/A 8/10 HUDSON CANYON 2350 70 70 350/ 19/ 23 1012.7 8/ 8 KINGS POINT 0024 74 72 60/ 6/ 10 1016.9 EXECUTION ROCKS 0045 74 20/ 10/ 12 N/A WESTERN LI SOUND NOT AVBL CENTRAL LI SOUND 0030 72 20/ 17/ 23 N/A 2 EASTERN LI SOUND NOT AVBL ROBBINS REEF 0036 77 10/ 14/ 19 1016.8 $$ >>>>>>>>>>>>>>>>>>>>>>>>>>>> KEY <<<<<<<<<<<<<<<<<<<<<<<<<<< > < > SKY/WX - Sky Condition/Present Weather < > TMP - Temperature in Fahrenheit < > DP - Dew Point in Fahrenheit < > RH - Relative Humidity in Percent < > WIND - Direction (from) and Speed in MPH < > PRES - Mean Sea Level Pressure (inches of Hg) < > WCI - Wind Chill Index < > VSB - VISIBILITY IN MILES < > HX - HEAT INDEX < > TC - TEMPERATURE IN CELSIUS < > VRB - VARIABLE WIND DIRECTION < > < >>>>>>>>>>>>>>>>>>>>>>>>>>>> KEY <<<<<<<<<<<<<<<<<<<<<<<<<<<

USA.gov is the U.S. government's official web portal to all federal, state and local government web resources and services.